Regional Weather Roundup
Issued by NWS Upton, NY

Current Version | Previous Version | Graphics & Text | Print | Product List | Glossary Off
Versions: 1 2 3 4 5 6 7 8 9 10 11 12 13 14 15 16 17 18 19 20 21 22 23 24 25 26 27 28 29 30 31 32 33 34 35 36 37 38 39 40 41 42 43 44 45 46 47 48 49 50

000
ASUS41 KOKX 202105
RWROKX

Regional Weather Roundup
National Weather Service New York NY
400 PM EST TUE FEB 20 2018

Note: "FAIR" indicates few or no clouds below 12,000 feet with no
significant weather and/or obstructions to visibility.

NYZ071-072-176-178-NJZ106-104-202200-
New York City Metro Area

CITY           SKY/WX    TMP DP  RH WIND       PRES   REMARKS
Central Park   FAIR      66  54  65 MISG      30.29F
Bronx Bot Gard   N/A     66  52  59 S6        30.29R
Bronx Lehman C   N/A     66  54  63 S5          N/A
LaGuardia Arpt PTSUNNY   67  53  61 SW7       30.26F
Queens College   N/A     66  54  63 S10         N/A
Kennedy Intl   PTSUNNY   55  50  83 SE8       30.30R
Breezy Point     N/A     46 N/A N/A SE6         N/A
Brooklyn Coll    N/A     63  52  67 S5          N/A
Staten Island    N/A     68  54  60 SW8         N/A
Newark/Liberty PTSUNNY   68  55  63 S12       30.26F
Teterboro      FAIR      66  55  67 S12       30.26S
$$

NYZ177-179-078>081-202200-
Long Island New York

CITY           SKY/WX    TMP DP  RH WIND       PRES   REMARKS
Jones Beach      N/A     46 N/A N/A S6          N/A
Wantagh          N/A     54  48  82 S2          N/A
Hempstead        N/A     63  54  72 S3        30.32S
Matinecock Pt    N/A     63 N/A N/A SW10        N/A
Farmingdale    FAIR      58  50  75 S8        30.29S
MacArthur/ISP  PTSUNNY   56  50  80 S8        30.29S
Shirley        FAIR      52  49  89 S8        30.30S
Mt Sinai Harb    N/A     64 N/A N/A SW3G9       N/A
Westhampton    CLOUDY    47  46  97 VRB7      30.32S FOG
East Hampton   CLOUDY    47  46  95 SW6       30.30S FOG
Southold         N/A     54  48  82 S8          N/A
Montauk          N/A     49  47  93 SW7       30.31S
$$

NYZ052-065-067-202200-
Hudson Valley

CITY           SKY/WX    TMP DP  RH WIND       PRES   REMARKS
White Plains   FAIR      65  52  62 S6        30.26S
Larchmont Harb   N/A     61 N/A N/A S12         N/A
Croton On Huds   N/A     63 N/A N/A SE6         N/A
Somers           N/A     64  52  63 S7          N/A
Brewster         N/A     63  50  63 S3          N/A
Newburgh       NOT AVBL
Montgomery     FAIR      61  51  70 SW16      30.23R
Otisville        N/A     59  50  72 S7          N/A
Warwick          N/A     61  52  72 W7          N/A
Suffern          N/A     66  52  59 S3          N/A
Poughkeepsie   FAIR      67  49  52 SW12      30.22R
Albany         PTSUNNY   63  48  58 S10       30.17S
$$

NJZ001-105-106-008-010-013-015-019>022-104-202200-
New Jersey

CITY           SKY/WX    TMP DP  RH WIND       PRES   REMARKS
Newark/Liberty PTSUNNY   68  55  63 S12       30.26F
Teterboro      FAIR      66  55  67 S12       30.26S
Caldwell       FAIR      66  55  67 SW6       30.26F
Somerville     FAIR      69  56  62 S5        30.25S
Linden         FAIR      67  54  61 W6        30.27S
Perth Amboy      N/A     66 N/A N/A SW10G17     N/A
Sussex         FAIR      59  52  77 SW10G18   30.26S
Andover          N/A     57  51  80 CALM      30.27S
Trenton        FAIR      70  57  63 SW12      30.27F
Millville      FAIR      71  57  61 VRB6      30.31S
Atlantic City  FAIR      73  58  59 SW18G26   30.32S
Wrightstown    FAIR      76  57  52 SW12      30.25
Toms River     FAIR      74  58  57 SW18      30.29S
Belmar         FAIR      75  56  51 SW12G23   30.28S
$$

PAZ047>061-062-071-202200-
Eastern Pennsylvania

CITY           SKY/WX    TMP DP  RH WIND       PRES   REMARKS
Philadelphia   PTSUNNY   72  57  59 SW14G22   30.28F
Allentown      FAIR      59  53  80 N3        30.27F
Scranton       FAIR      65  52  62 W6        30.23S
$$

CTZ002-004>006-009-010-012-RIZ004-006-007-MAZ004-011-015-202200-
Southern New England

 In CT

CITY           SKY/WX    TMP DP  RH WIND       PRES   REMARKS
Bradley Intl   PTSUNNY   68  51  54 SW14      30.22R
Hartford       FAIR      64  53  67 S10       30.23S
Danbury        FAIR     N/A N/A N/A S9        30.26S
Wtrbury/Oxford FAIR      66  53  63 S9        30.26R
Norwalk Harbor   N/A     54 N/A N/A SW12        N/A
Bridgeport     FAIR      55  48  77 SW6       30.27S
Meriden        FAIR      61  51  70 S15       30.25S
New Haven      FAIR      53  46  77 S6        30.27S
Chester          N/A     61  52  72 SW10G16   30.27S
Groton         FOG       46  45  96 S7        30.28F VSB 1/4
Willimantic    FAIR      65  52  62 S10       30.25R

 In RI

CITY           SKY/WX    TMP DP  RH WIND       PRES   REMARKS
Providence     PTSUNNY   65  54  67 SW14      30.25S
Block Island   LGT RAIN  45  45 100 SW18      30.30S VSB 1/4
Westerly       FOG       47  47 100 S7        30.30R VSB<1/4

In MA

CITY           SKY/WX    TMP DP  RH WIND       PRES   REMARKS
Boston         PTSUNNY   70  54  56 SW12      30.19S
Worcester      FAIR      66  52  60 SW16      30.21S
Westfield      FAIR      68  53  58 S9        30.18S
Provincetown   FOG       46  45  96 SW14G23   30.24S VSB 1/4
Nantucket      FOG       46  46 100 SW17      30.31R VSB 1/4
$$

ANZ330-335-338-340-345-350-353-355-202200-
Coastal Marine Observations


STATION/POSITION TIME  SKY/WX   TEMP    WIND        PRES    VSBY  WAVE
                                AIR SEA DIR/SP/G                  HT/PER
                 (UTC)          (F)     (DEG/KT/KT) (MB)    (MI)  (FT/S)
NY Harb Entrance 2050            47 44  200/  8/ 10 1025.3          3/11
20 S Fire Island 2050            46 42  210/ 16/ 17 1026.2          4/ 6
15 E Barnegat Li 2000               41                N/A           5/11
Hudson Canyon    2050            50 47  210/ 16/ 17 1027.5          5/11
Kings Point      2024            60 37  250/  8/  9 1026.0
Execution Rocks  NOT AVBL
Western LI Sound NOT AVBL
Central LI Sound 2030            42     140/  4/  6   N/A           1
Robbins Reef     2024            65     230/  6/  8 1025.6
$$


>>>>>>>>>>>>>>>>>>>>>>>>>>>> KEY <<<<<<<<<<<<<<<<<<<<<<<<<<<
>                                                          <
>     SKY/WX - Sky Condition/Present Weather               <
>     TMP    - Temperature in Fahrenheit                   <
>     DP     - Dew Point in Fahrenheit                     <
>     RH     - Relative Humidity in Percent                <
>     WIND   - Direction (from) and Speed in MPH           <
>     PRES   - Mean Sea Level Pressure (inches of Hg)      <
>     WCI    - Wind Chill Index                            <
>     VSB    - Visibility in Miles                         <
>     HX     - Heat Index                                  <
>     TC     - Temperature in Celsius                      <
>     VRB    - Varibale Wind Direction                     <
>                                                          <
>>>>>>>>>>>>>>>>>>>>>>>>>>>> KEY <<<<<<<<<<<<<<<<<<<<<<<<<<<



USA.gov is the U.S. government's official web portal to all federal, state and local government web resources and services.